FW2087 Weather Reports


Display with metric or nautical units.
time (UTC)temp
F
wind
direction
speed
MPH
gust
MPH
rain 1hr
in
rain 24hr
in
rain mn
in
humidity
%
barometer
mb
20260504001557 60 139 0.0 0.0 0.00 0.00 0.00 63 1016.7
20260504000105 63 139 0.0 0.0 0.00 0.00 0.00 56 1016.7
20260503234506 65 139 0.0 0.0 0.00 0.00 0.00 52 1016.9
20260503233017 65 170 0.0 0.0 0.00 0.00 0.00 49 1017.0
20260503231532 66 184 0.0 0.0 0.00 0.00 0.00 48 1017.2
20260503230045 66 235 0.0 3.0 0.00 0.00 0.00 46 1017.3
20260503224559 66 289 0.0 2.0 0.00 0.00 0.00 43 1017.6
20260503223005 66 185 0.0 4.0 0.00 0.00 0.00 43 1017.6
20260503221602 66 319 0.0 5.0 0.00 0.00 0.00 42 1017.6
20260503220015 66 121 0.0 4.0 0.00 0.00 0.00 42 1017.9
20260503214526 66 340 1.0 5.0 0.00 0.00 0.00 44 1018.0
20260503213038 66 219 0.0 3.0 0.00 0.00 0.00 46 1018.2
20260503211604 67 208 0.0 6.0 0.00 0.00 0.00 41 1018.4
20260503210008 69 96 1.0 4.0 0.00 0.00 0.00 39 1018.4
20260503204521 67 276 0.0 3.0 0.00 0.00 0.00 40 1018.6
20260503203039 67 162 0.0 6.0 0.00 0.00 0.00 43 1018.7
20260503201555 67 124 1.0 4.0 0.00 0.00 0.00 40 1019.1
20260503200101 66 191 1.0 5.0 0.00 0.00 0.00 44 1019.3
20260503194507 66 298 1.0 5.0 0.00 0.00 0.00 42 1019.6
20260503193034 65 261 0.0 4.0 0.00 0.00 0.00 45 1019.7
20260503191538 66 307 1.0 7.0 0.00 0.00 0.00 44 1019.9
20260503190050 65 178 1.0 7.0 0.00 0.00 0.00 46 1020.1
20260503184554 64 199 0.0 6.0 0.00 0.00 0.00 46 1020.3
20260503183057 64 213 1.0 4.0 0.00 0.00 0.00 46 1020.3
20260503181513 63 300 0.0 4.0 0.00 0.00 0.00 50 1020.6
20260503180031 63 200 0.0 7.0 0.00 0.00 0.00 50 1020.8
20260503174603 64 360 0.0 4.0 0.00 0.00 0.00 52 1020.9
20260503173106 62 204 0.0 3.0 0.00 0.00 0.00 49 1021.2
20260503171514 62 151 0.0 2.0 0.00 0.00 0.00 52 1021.4
20260503150105 55 137 2.0 5.0 0.00 0.00 0.00 57 1022.5
20260503140109 53 98 0.0 4.0 0.00 0.00 0.00 73 1022.5
20260503100106 39 267 0.0 0.0 0.00 0.00 0.00 94 1020.1
20260503081550 42 267 0.0 0.0 0.00 0.00 0.00 91 1019.7
20260503071541 44 267 0.0 0.0 0.00 0.00 0.00 88 1019.1
20260503054503 46 267 0.0 0.0 0.00 0.00 0.00 86 1018.8
20260503053015 46 267 0.0 0.0 0.00 0.00 0.00 84 1018.7
20260503051532 47 267 0.0 0.0 0.00 0.00 0.00 84 1018.6
20260503050039 47 266 0.0 0.0 0.00 0.00 0.00 82 1018.7
20260503044556 47 267 0.0 0.0 0.00 0.00 0.00 80 1018.7
20260503043003 48 267 0.0 0.0 0.00 0.00 0.00 79 1018.6
20260503041513 50 267 0.0 0.0 0.00 0.00 0.00 76 1018.2
20260503040022 51 267 0.0 0.0 0.00 0.00 0.00 75 1018.2
20260503034536 52 267 0.0 0.0 0.00 0.00 0.00 72 1018.5
20260503033053 53 267 0.0 0.0 0.00 0.00 0.00 70 1018.5
20260503031600 54 117 0.0 3.0 0.00 0.00 0.00 67 1018.5
20260503030011 54 101 0.0 3.0 0.00 0.00 0.00 67 1018.4
20260503024530 54 219 0.0 0.0 0.00 0.00 0.00 67 1018.2
20260503023039 54 245 0.0 1.0 0.00 0.00 0.00 67 1017.8
20260503021554 53 13 0.0 3.0 0.00 0.00 0.00 70 1017.5
20260503020005 51 268 0.0 0.0 0.00 0.00 0.00 75 1017.1
20260503014521 51 268 0.0 0.0 0.00 0.00 0.00 73 1016.8
20260503013035 51 268 0.0 0.0 0.00 0.00 0.00 72 1016.7
20260503011554 51 267 0.0 0.0 0.00 0.00 0.00 70 1016.4
20260503010005 52 268 0.0 0.0 0.00 0.00 0.00 68 1016.2
20260503004529 54 268 0.0 1.0 0.00 0.00 0.00 63 1016.1
20260503003049 55 268 0.0 1.0 0.00 0.00 0.00 59 1016.0